Home   Weather   Yucaipa   Past weeks
Flag for USA

Past Weather in Yucaipa, California, USA — Yesterday and Last 2 Weeks

Now
86 °F

Passing clouds.


Feels Like: 83 °F
Forecast: 86 / 54 °F
Wind: 7 mph from West

Location: Norton Air Force Base / San Bern

Current Time: Aug 17, 2019 at 1:48:40 pm

Latest Report: Aug 17, 2019 at 12:48 pm


Visibility: 7 mi

Pressure: 29.90 "Hg (27.33 "Hg at 798m altitude)

Humidity: 27%

Dew Point: 48 °F

Location of YucaipaLocation

Past Weather in Yucaipa — Graph

°F

Yucaipa Temperature Yesterday

Maximum temperature yesterday: 100 °F (at 3:48 pm)
Minimum temperature yesterday: 66 °F (at 5:03 am)
Average temperature yesterday: 78 °F

High & Low Weather Summary for the Past Weeks

 TemperatureHumidityPressure
High106 °F (Aug 6, 2:55 pm)84% (Aug 17, 4:40 am)30.01 "Hg (Aug 17, 4:40 am)
Low62 °F (Aug 17, 5:00 am)7% (Aug 5, 2:50 pm)29.82 "Hg (Aug 6, 4:50 pm)
Average79 °F43%29.94 "Hg
* Reported Aug 2 11:49 am — Aug 17 11:48 am, Yucaipa. Weather by CustomWeather, © 2019

Note: Actual official high and low records may vary slightly from our data, if they occured in-between our weather recording intervals... More about our weather records

Advertising

Yucaipa Weather History for the Previous 24 Hours

Scroll right to see more
 ConditionsComfort  
Time TempWeatherWind HumidityBarometerVisibility
11:48 am
Sat, Aug 17
81 °FHaze.No wind39%29.92 "Hg5 mi
10:55 am75 °FHaze.No wind50%29.93 "Hg4 mi
9:50 am70 °FHaze.No wind64%29.94 "Hg4 mi
9:15 am68 °FScattered clouds.No wind69%29.94 "Hg4 mi
8:47 am66 °FOvercast.No wind73%29.95 "Hg3 mi
7:55 am64 °FLow clouds.No wind78%29.94 "Hg3 mi
6:48 am63 °FLow clouds.No wind77%29.93 "Hg3 mi
5:43 am62 °FClear.3 mph84%29.92 "Hg7 mi
5:20 am63 °FClear.5 mph84%29.92 "Hg7 mi
5:00 am62 °FClear.5 mph84%29.92 "Hg7 mi
4:40 am62 °FClear.3 mph84%29.92 "Hg7 mi
4:21 am62 °FClear.6 mph83%29.92 "Hg7 mi
4:03 am63 °FClear.6 mph82%29.92 "Hg10 mi
3:40 am63 °FClear.6 mph81%29.92 "Hg10 mi
3:20 am64 °FClear.6 mph80%29.92 "Hg10 mi
3:00 am64 °FClear.6 mph79%29.91 "Hg10 mi
2:41 am65 °FClear.6 mph77%29.92 "Hg10 mi
2:23 am65 °FClear.5 mph76%29.92 "Hg10 mi
2:00 am66 °FClear.6 mph74%29.92 "Hg10 mi
1:21 am66 °FClear.7 mph72%29.92 "Hg10 mi
1:01 am67 °FClear.5 mph71%29.92 "Hg10 mi
12:43 am69 °FClear.3 mph68%29.93 "Hg10 mi
12:20 am68 °FClear.5 mph69%29.93 "Hg10 mi
12:00 am69 °FClear.5 mph66%29.93 "Hg10 mi
11:40 pm
Fri, Aug 16
69 °FClear.3 mph64%29.93 "Hg10 mi
11:03 pm70 °FClear.6 mph62%29.93 "Hg10 mi
10:40 pm72 °FClear.6 mph59%29.93 "Hg10 mi
10:20 pm73 °FClear.7 mph56%29.93 "Hg10 mi
10:00 pm74 °FClear.6 mph52%29.93 "Hg10 mi
8:50 pm77 °FClear.6 mph42%29.91 "Hg10 mi
7:50 pm82 °FClear.12 mph26%29.88 "Hg10 mi
6:50 pm90 °FSunny.13 mph18%29.86 "Hg10 mi
5:50 pm93 °FSunny.14 mph15%29.86 "Hg10 mi
4:48 pm95 °FSunny.14 mph19%29.85 "Hg10 mi
3:48 pm100 °FSunny.14 mph16%29.85 "Hg10 mi
2:50 pm99 °FSunny.6 mph11%29.88 "Hg7 mi
1:50 pm99 °FSunny.6 mph14%29.89 "Hg7 mi
Weather by CustomWeather, © 2019

See weather overview